Vorticity
6 8 1 2 2 1 1 1 0 1 2 -0 -2 1 3 3 4 7 5 5 9 6 3 4 0 5 4 -1 0 1 5 7 3 3 4 4 4 1 1 1 0 2 4 8 13 12 9 8 6
10 4 7 4 1 1 1 2 -0 2 3 1 3 0 3 1 6 7 7 6 5 5 3 3 7 5 1 0 2 6 2 4 4 4 3 4 2 1 1 2 4 10 14 14 11 8 8 7 5
6 10 6 6 9 3 0 1 4 1 -4 2 1 -1 -1 -1 5 5 8 5 6 6 4 3 2 2 2 0 5 1 6 4 3 3 5 5 6 3 7 14 17 16 11 8 7 6 6 6 7
3 3 7 7 5 8 4 0 1 3 -1 -2 0 2 2 -2 3 4 7 6 7 6 4 3 2 4 3 -0 4 5 6 3 3 4 2 4 9 12 11 12 10 8 7 7 6 5 4 2 3
2 3 3 7 8 5 5 7 3 2 4 1 -1 0 0 -1 1 4 8 7 7 6 3 5 5 4 1 9 2 5 4 2 3 2 -0 2 7 8 11 7 6 7 6 4 4 3 3 2 2
3 3 2 4 5 9 5 6 7 5 3 0 3 3 -0 1 1 4 6 10 6 5 7 4 2 4 3 2 3 4 3 2 3 2 3 3 10 12 11 6 6 5 4 3 2 2 2 2 3
3 2 4 4 4 3 8 6 5 6 1 4 1 0 1 1 2 3 5 10 6 6 6 4 4 3 4 3 3 3 3 3 3 3 1 3 4 11 8 6 5 7 4 2 2 2 3 3 4
20 11 1 3 4 4 3 5 11 4 10 1 -1 1 4 5 5 5 5 8 7 7 5 5 4 3 3 3 3 3 3 3 3 1 4 -2 4 8 8 5 4 4 3 2 2 3 4 7 9
17 22 8 -1 2 3 5 2 9 3 10 5 2 2 4 4 5 2 5 8 10 7 7 5 4 3 3 3 4 4 3 3 3 3 5 4 5 8 9 5 4 4 2 2 3 5 6 7 8
14 18 17 11 -1 4 9 6 -6 10 4 4 8 -1 6 -2 3 6 5 8 11 7 6 6 4 3 3 4 4 4 3 4 3 4 4 8 7 8 9 5 3 3 1 3 6 6 6 7 12
15 25 13 20 14 9 -4 11 8 3 5 5 11 10 10 8 8 8 10 8 11 7 5 6 5 4 3 4 4 4 4 4 3 4 5 6 7 8 7 4 3 3 2 5 6 6 7 8 16
22 21 7 19 25 14 10 4 4 2 12 7 6 7 1 3 7 6 9 9 12 7 5 6 4 4 4 4 4 4 4 3 3 5 5 3 5 8 8 4 3 3 2 8 5 7 7 13 17
19 27 13 13 17 30 11 5 7 5 5 7 3 9 5 5 3 5 9 8 8 6 5 6 5 4 4 4 4 4 3 3 5 6 4 5 6 9 7 5 4 3 4 10 6 6 11 14 14
24 14 22 5 38 13 18 12 5 9 8 8 7 12 6 5 5 6 7 9 7 6 5 6 5 4 4 4 4 3 3 3 5 5 3 5 5 9 6 4 3 4 5 11 8 7 11 17 11
20 22 2 10 13 29 10 14 11 10 13 7 12 6 5 4 4 7 6 8 6 5 5 5 4 3 3 5 3 3 4 3 6 4 6 4 6 9 6 4 3 5 7 11 11 7 8 16 11
20 19 15 3 10 26 28 8 8 15 9 10 12 6 4 4 4 7 8 8 5 5 5 3 4 5 3 4 3 3 4 4 5 5 2 4 7 9 7 5 2 3 11 12 12 7 4 5 8
15 21 12 15 10 16 33 8 10 15 13 8 10 6 4 4 4 6 7 8 3 7 5 4 4 3 5 3 3 2 4 4 5 5 5 2 7 8 7 5 3 2 12 10 12 11 4 2 6
19 22 12 38 24 -1 28 17 19 17 11 8 9 6 5 4 5 7 7 7 4 6 5 4 3 5 3 3 3 3 3 2 5 8 4 4 5 8 8 4 3 3 13 9 14 15 10 -1 5
22 16 28 -0 -42 13 29 24 16 17 9 8 9 6 5 4 6 6 7 4 7 2 2 2 5 1 3 3 2 1 1 1 5 9 5 2 7 9 6 4 3 7 10 11 15 18 17 12 2
11 9 21 43 34 -16 51 14 18 17 8 8 6 6 4 5 6 8 7 4 2 1 3 5 0 4 3 2 -0 1 2 2 9 7 1 4 8 8 6 5 1 11 9 14 11 12 8 20 5
-38 38 -2 5 14 3 40 8 21 15 7 7 6 6 7 4 7 7 7 3 2 3 4 3 5 3 4 1 1 3 4 8 10 4 3 3 7 8 6 4 4 10 11 10 9 9 9 15 12
59 16 35 -3 16 -24 31 13 21 14 7 9 7 7 2 5 7 6 5 6 5 4 3 4 3 3 1 0 4 4 2 12 8 3 3 3 10 7 5 4 7 12 12 8 12 10 10 12 14
1 2 14 -5 26 30 28 13 10 11 11 9 8 5 3 5 6 7 4 3 3 4 5 2 3 3 0 3 4 0 11 4 -1 1 -1 8 8 6 5 3 9 12 11 7 13 13 11 10 11
18 -2 20 3 26 22 23 -8 32 24 7 6 7 6 5 5 6 6 3 2 3 3 2 2 4 0 3 5 8 12 6 1 2 4 4 9 9 6 4 6 9 13 10 7 11 10 7 7 8
-2 16 24 27 15 23 6 -14 60 3 10 9 8 7 5 5 7 7 6 5 3 2 3 4 2 2 3 5 1 3 1 8 12 4 6 9 7 7 3 6 9 12 10 7 9 8 5 4 6
6 19 8 6 18 9 18 18 -2 44 11 13 11 10 6 6 7 7 7 6 7 6 5 4 1 5 6 5 14 -3 5 1 2 -3 8 8 9 4 3 6 11 11 10 8 8 9 6 4 4
39 11 24 15 17 -18 14 8 -11 40 15 6 10 9 4 6 7 7 7 6 5 3 1 4 7 5 11 2 1 -3 5 7 4 4 9 10 6 3 7 4 12 13 11 8 6 7 7 7 6
12 8 16 15 -19 34 10 15 23 -2 28 8 9 9 8 8 7 8 7 6 6 7 7 5 8 9 8 -9 7 1 6 5 3 7 11 7 4 7 5 10 13 12 9 7 6 7 8 7 6
4 -8 19 -5 22 7 34 20 5 -5 28 12 9 10 9 8 8 8 8 8 7 7 8 9 13 1 0 8 5 10 5 2 7 8 11 6 4 4 9 11 11 10 7 6 6 7 7 7 6
17 9 23 -12 -9 -8 34 24 10 14 1 18 11 8 8 8 7 8 8 9 9 8 9 8 -4 11 7 7 7 3 2 7 9 14 6 3 2 9 10 11 11 7 6 5 6 7 7 5 7
Height
5840 5843 5845 5847 5850 5847 5855 5868 5870 5872 5873 5874 5875 5875 5874 5877 5878 5880 5879 5881 5883 5882 5883 5883 5884 5885 5885 5885 5886 5885 5885 5885 5884 5884 5883 5883 5882 5881 5880 5879 5878 5876 5875 5873 5871 5870 5869 5868 5867
5831 5833 5835 5836 5836 5838 5848 5866 5865 5867 5869 5872 5871 5872 5873 5875 5875 5876 5878 5880 5880 5882 5883 5883 5883 5884 5884 5885 5885 5885 5885 5884 5883 5883 5882 5881 5881 5880 5878 5877 5875 5873 5872 5870 5869 5868 5868 5867 5866
5821 5823 5825 5826 5828 5829 5843 5859 5862 5859 5863 5868 5869 5868 5872 5872 5873 5874 5876 5877 5879 5880 5882 5882 5883 5883 5884 5884 5884 5884 5884 5883 5882 5882 5881 5880 5879 5878 5876 5874 5872 5870 5870 5869 5868 5867 5866 5865 5864
5809 5812 5815 5815 5819 5829 5835 5850 5854 5848 5858 5862 5865 5865 5869 5869 5871 5872 5873 5875 5877 5878 5880 5881 5882 5882 5882 5883 5883 5883 5883 5882 5881 5881 5880 5879 5877 5875 5873 5871 5870 5869 5868 5867 5866 5865 5864 5863 5861
5796 5800 5802 5807 5813 5821 5827 5837 5843 5841 5853 5856 5858 5861 5864 5866 5866 5868 5870 5872 5874 5875 5877 5879 5880 5881 5881 5881 5882 5882 5881 5881 5880 5879 5878 5877 5875 5873 5871 5870 5868 5867 5866 5865 5864 5862 5861 5859 5857
5782 5784 5791 5799 5806 5811 5818 5828 5831 5837 5841 5849 5848 5856 5860 5861 5863 5865 5866 5869 5870 5872 5874 5876 5878 5879 5879 5880 5880 5880 5879 5879 5878 5877 5876 5875 5873 5870 5869 5867 5866 5865 5864 5862 5860 5858 5856 5854 5851
5766 5768 5780 5788 5795 5798 5808 5816 5818 5829 5833 5840 5843 5848 5855 5856 5859 5861 5863 5865 5867 5869 5871 5873 5875 5876 5877 5878 5878 5878 5878 5877 5876 5875 5874 5872 5870 5868 5867 5866 5865 5863 5862 5860 5857 5855 5852 5849 5845
5748 5750 5765 5777 5782 5787 5796 5803 5811 5816 5827 5828 5833 5838 5849 5852 5853 5856 5859 5861 5863 5865 5867 5870 5872 5873 5875 5876 5876 5876 5875 5875 5874 5873 5871 5870 5868 5865 5864 5863 5862 5860 5858 5856 5853 5851 5847 5843 5839
5726 5733 5751 5764 5770 5777 5783 5790 5798 5804 5817 5814 5825 5832 5845 5844 5847 5851 5854 5856 5858 5861 5864 5866 5868 5870 5872 5873 5873 5873 5873 5872 5871 5870 5869 5867 5865 5863 5861 5860 5859 5857 5855 5852 5849 5846 5842 5838 5833
5707 5716 5735 5748 5754 5762 5769 5775 5782 5792 5802 5805 5819 5825 5837 5836 5841 5844 5848 5851 5854 5857 5859 5862 5864 5866 5868 5869 5870 5870 5870 5869 5869 5867 5866 5864 5862 5860 5859 5857 5856 5854 5851 5848 5845 5841 5837 5832 5827
5693 5700 5721 5724 5734 5744 5753 5758 5768 5777 5789 5798 5812 5819 5828 5828 5833 5837 5842 5846 5849 5852 5855 5858 5861 5863 5864 5866 5867 5867 5867 5866 5866 5865 5863 5861 5860 5857 5856 5854 5853 5850 5847 5844 5840 5836 5831 5826 5821
5674 5689 5698 5706 5715 5723 5734 5746 5753 5762 5780 5789 5800 5808 5816 5820 5826 5831 5836 5841 5844 5848 5851 5854 5856 5859 5860 5862 5863 5863 5863 5863 5862 5861 5860 5858 5856 5854 5853 5851 5849 5846 5843 5839 5835 5831 5826 5821 5817
5660 5678 5681 5690 5700 5704 5717 5732 5741 5751 5770 5777 5789 5799 5808 5812 5818 5823 5830 5835 5839 5843 5847 5850 5853 5855 5856 5858 5859 5860 5859 5859 5859 5858 5856 5855 5853 5851 5849 5847 5845 5842 5839 5835 5830 5826 5822 5818 5815
5654 5660 5665 5673 5683 5686 5704 5719 5729 5745 5763 5769 5781 5792 5799 5804 5810 5817 5823 5829 5834 5838 5842 5846 5848 5851 5853 5854 5855 5856 5856 5855 5855 5854 5853 5851 5849 5847 5845 5843 5841 5838 5835 5830 5826 5822 5818 5815 5813
5641 5646 5653 5660 5673 5678 5691 5703 5720 5735 5752 5759 5772 5782 5788 5795 5802 5811 5817 5822 5828 5833 5837 5841 5844 5847 5848 5850 5851 5852 5853 5851 5851 5850 5849 5847 5846 5843 5841 5839 5836 5833 5830 5826 5821 5818 5815 5812 5809
5631 5635 5640 5655 5662 5671 5676 5693 5708 5727 5740 5751 5764 5773 5780 5788 5795 5804 5811 5817 5823 5829 5833 5836 5840 5842 5844 5846 5847 5848 5848 5847 5846 5846 5844 5843 5841 5839 5837 5834 5832 5829 5825 5821 5817 5814 5812 5809 5806
5624 5629 5636 5647 5654 5663 5664 5682 5702 5717 5731 5743 5756 5764 5773 5781 5789 5797 5804 5811 5818 5823 5828 5832 5835 5837 5840 5841 5843 5844 5844 5843 5842 5841 5840 5839 5836 5834 5832 5830 5826 5823 5819 5815 5812 5809 5807 5805 5803
5621 5624 5631 5639 5651 5656 5660 5673 5695 5709 5724 5736 5747 5757 5766 5775 5784 5791 5798 5806 5813 5818 5822 5826 5830 5833 5835 5837 5838 5839 5839 5838 5837 5837 5836 5834 5831 5829 5827 5824 5821 5818 5813 5809 5806 5803 5801 5800 5799
5613 5618 5627 5636 5643 5647 5654 5671 5685 5700 5713 5725 5737 5749 5759 5769 5777 5785 5793 5801 5807 5812 5816 5821 5825 5828 5830 5832 5834 5834 5833 5833 5832 5832 5830 5828 5826 5823 5821 5818 5815 5812 5807 5803 5799 5797 5795 5794 5793
5612 5617 5625 5630 5637 5643 5649 5665 5677 5691 5705 5718 5729 5741 5752 5763 5772 5780 5788 5795 5802 5807 5811 5816 5820 5823 5825 5827 5829 5829 5828 5828 5827 5826 5825 5822 5820 5817 5815 5812 5809 5805 5800 5797 5793 5791 5788 5787 5786
5613 5617 5622 5630 5636 5642 5649 5662 5670 5686 5697 5710 5721 5734 5746 5758 5768 5776 5783 5790 5796 5801 5806 5811 5815 5818 5820 5821 5823 5823 5823 5822 5821 5820 5818 5816 5814 5811 5809 5805 5802 5799 5794 5790 5788 5785 5783 5781 5779
5612 5618 5623 5628 5634 5639 5645 5653 5664 5680 5692 5704 5716 5728 5740 5751 5761 5769 5776 5784 5790 5796 5802 5806 5809 5812 5814 5816 5817 5817 5816 5816 5815 5814 5812 5810 5807 5805 5802 5799 5796 5792 5788 5784 5781 5779 5777 5774 5772
5616 5621 5625 5629 5634 5640 5645 5654 5664 5676 5687 5701 5714 5724 5735 5746 5756 5765 5773 5779 5785 5791 5796 5800 5803 5806 5809 5810 5811 5811 5811 5811 5809 5808 5805 5803 5800 5797 5795 5792 5789 5785 5781 5778 5775 5772 5770 5768 5766
5619 5622 5626 5628 5632 5636 5645 5654 5661 5671 5689 5697 5709 5721 5732 5742 5752 5760 5767 5773 5781 5787 5791 5794 5798 5801 5803 5804 5805 5805 5805 5804 5803 5801 5798 5796 5793 5791 5788 5785 5782 5778 5774 5771 5768 5766 5763 5761 5758
5621 5623 5622 5626 5630 5636 5646 5656 5664 5677 5684 5697 5708 5717 5727 5738 5747 5755 5763 5770 5776 5781 5785 5789 5792 5795 5797 5798 5799 5799 5799 5797 5796 5794 5791 5789 5786 5784 5781 5778 5774 5770 5767 5764 5761 5758 5755 5753 5750
5621 5624 5626 5628 5630 5639 5646 5650 5659 5668 5678 5693 5705 5714 5724 5735 5743 5751 5758 5764 5770 5775 5780 5783 5786 5789 5791 5792 5792 5792 5792 5790 5788 5786 5784 5781 5779 5776 5773 5771 5767 5762 5759 5755 5752 5749 5746 5744 5741
5621 5623 5627 5629 5635 5640 5645 5654 5661 5669 5679 5690 5699 5709 5720 5730 5739 5747 5754 5760 5765 5770 5774 5778 5781 5783 5784 5785 5786 5785 5784 5782 5780 5778 5775 5773 5770 5768 5765 5762 5757 5753 5750 5747 5743 5740 5737 5734 5730
5622 5626 5629 5631 5634 5639 5644 5653 5660 5668 5676 5687 5699 5710 5720 5728 5736 5743 5749 5755 5761 5765 5769 5773 5775 5778 5778 5779 5779 5778 5776 5774 5772 5770 5767 5765 5762 5759 5756 5752 5747 5743 5740 5737 5734 5730 5727 5723 5719
5624 5626 5629 5631 5636 5639 5645 5652 5659 5668 5678 5689 5698 5706 5716 5725 5732 5739 5746 5751 5755 5760 5764 5767 5770 5771 5772 5772 5771 5770 5768 5766 5764 5761 5759 5756 5753 5750 5746 5741 5737 5733 5730 5726 5723 5719 5715 5712 5707
5624 5627 5630 5634 5638 5639 5646 5653 5659 5670 5679 5686 5696 5705 5714 5721 5728 5735 5741 5746 5751 5755 5759 5762 5763 5764 5764 5763 5763 5761 5759 5758 5756 5753 5750 5747 5744 5740 5735 5730 5726 5722 5719 5715 5712 5708 5704 5699 5695